PWSweather.com
Personal Weather Stations
Station Observations
948974
Valtournenche, AostaIT 11028

ValtournencheAostaIT 11028

Lat: 45.877222, Lon: 7.625556

Elevation: 5085.3018

Station Type: PCE-FWS 20

http://www.cdso.it

High Low Average
Temperature 69.4°F20.8°C 44.4°F6.9°C 52.5°F11.4°C
Dew Point 51.7°F10.9°C 23.6°F-4.7°C 40.9°F4.9°C
Winds 7.0 mph 11.3 kmh Calm Calm 2.0 mph SSW3.2 kmh SSW
Wind Gusts 15.0 mph24.1 kmh -- 5.0 mph8.0 kmh
Humidity 99% 18% 72%
Pressure 30.08 in1018.6 mb 29.73 in1006.8 mb -
Precipitation 0.13 in3.3 mm - -
Hour Temp Dew Point Humidity Winds Wind Gusts Pressure Precip Precip Rate Daily Precip Total
12:07 AM 46.4°F8.0°C 46.1°F7.8°C 99% 1.0 mph WNW1.6 kmh WNW 2.0 mph3.2 kmh 30.02 in1016.6 mb 0.00 in0.0 mm 0.00 in0.0 mm 0.00 in0.0 mm
12:28 AM 46.6°F8.1°C 46.3°F7.9°C 99% 2.0 mph WNW3.2 kmh WNW 4.0 mph6.4 kmh 30.03 in1016.9 mb 0.00 in0.0 mm 0.00 in0.0 mm 0.00 in0.0 mm
12:49 AM 46.0°F7.8°C 45.2°F7.3°C 97% 1.0 mph WNW1.6 kmh WNW 2.0 mph3.2 kmh 30.04 in1017.3 mb 0.00 in0.0 mm 0.00 in0.0 mm 0.00 in0.0 mm
01:10 AM 46.0°F7.8°C 45.2°F7.3°C 97% Calm Calm 1.0 mph1.6 kmh 30.04 in1017.3 mb 0.00 in0.0 mm 0.00 in0.0 mm 0.00 in0.0 mm
01:31 AM 46.2°F7.9°C 45.4°F7.4°C 97% 2.0 mph WNW3.2 kmh WNW 2.0 mph3.2 kmh 30.03 in1016.9 mb 0.06 in1.5 mm 0.17 in4.3 mm 0.06 in1.5 mm
01:52 AM 46.2°F7.9°C 45.4°F7.4°C 97% 3.0 mph WNW4.8 kmh WNW 4.0 mph6.4 kmh 30.01 in1016.3 mb 0.12 in3.0 mm 0.17 in4.3 mm 0.12 in3.0 mm
02:13 AM 46.9°F8.3°C 46.7°F8.2°C 99% 3.0 mph WNW4.8 kmh WNW 4.0 mph6.4 kmh 30.00 in1015.9 mb 0.12 in3.0 mm 0.00 in0.0 mm 0.12 in3.0 mm
02:34 AM 46.4°F8.0°C 46.1°F7.8°C 99% Calm Calm 1.0 mph1.6 kmh 30.01 in1016.3 mb 0.07 in1.8 mm 0.00 in0.0 mm 0.13 in3.3 mm
02:55 AM 46.6°F8.1°C 46.3°F7.9°C 99% 1.0 mph WNW1.6 kmh WNW 2.0 mph3.2 kmh 29.99 in1015.6 mb 0.01 in0.3 mm 0.00 in0.0 mm 0.13 in3.3 mm
03:16 AM 46.8°F8.2°C 46.5°F8.1°C 99% 1.0 mph WNW1.6 kmh WNW 2.0 mph3.2 kmh 29.99 in1015.6 mb 0.01 in0.3 mm 0.00 in0.0 mm 0.13 in3.3 mm
03:37 AM 46.6°F8.1°C 46.3°F7.9°C 99% Calm Calm 1.0 mph1.6 kmh 29.99 in1015.6 mb 0.00 in0.0 mm 0.00 in0.0 mm 0.13 in3.3 mm
03:58 AM 46.6°F8.1°C 46.3°F7.9°C 99% 1.0 mph WNW1.6 kmh WNW 2.0 mph3.2 kmh 29.98 in1015.2 mb 0.00 in0.0 mm 0.00 in0.0 mm 0.13 in3.3 mm
04:19 AM 46.8°F8.2°C 46.5°F8.1°C 99% 1.0 mph WNW1.6 kmh WNW 2.0 mph3.2 kmh 29.98 in1015.2 mb 0.00 in0.0 mm 0.00 in0.0 mm 0.13 in3.3 mm
04:40 AM 46.6°F8.1°C 46.3°F7.9°C 99% Calm Calm -- 29.98 in1015.2 mb 0.00 in0.0 mm 0.00 in0.0 mm 0.13 in3.3 mm
05:01 AM 46.9°F8.3°C 46.7°F8.2°C 99% 2.0 mph WNW3.2 kmh WNW 4.0 mph6.4 kmh 29.97 in1014.9 mb 0.00 in0.0 mm 0.00 in0.0 mm 0.13 in3.3 mm
05:22 AM 46.9°F8.3°C 46.7°F8.2°C 99% 1.0 mph WNW1.6 kmh WNW 2.0 mph3.2 kmh 29.97 in1014.9 mb 0.00 in0.0 mm 0.00 in0.0 mm 0.13 in3.3 mm
05:43 AM 46.9°F8.3°C 46.7°F8.2°C 99% 2.0 mph WNW3.2 kmh WNW 3.0 mph4.8 kmh 29.96 in1014.6 mb 0.00 in0.0 mm 0.00 in0.0 mm 0.13 in3.3 mm
06:04 AM 47.3°F8.5°C 47.0°F8.3°C 99% 2.0 mph WNW3.2 kmh WNW 2.0 mph3.2 kmh 29.95 in1014.2 mb 0.00 in0.0 mm 0.00 in0.0 mm 0.13 in3.3 mm
06:25 AM 47.8°F8.8°C 47.6°F8.7°C 99% 1.0 mph WNW1.6 kmh WNW 2.0 mph3.2 kmh 29.94 in1013.9 mb 0.00 in0.0 mm 0.00 in0.0 mm 0.13 in3.3 mm
06:46 AM 48.0°F8.9°C 47.8°F8.8°C 99% 2.0 mph WNW3.2 kmh WNW 3.0 mph4.8 kmh 29.94 in1013.9 mb 0.00 in0.0 mm 0.00 in0.0 mm 0.13 in3.3 mm
07:03 AM 48.0°F8.9°C 47.7°F8.7°C 99% 2.0 mph WNW3.2 kmh WNW 7.0 mph11.3 kmh 29.94 in1013.9 mb 0.00 in0.0 mm 0.00 in0.0 mm 0.13 in3.3 mm
07:21 AM 47.0°F8.3°C 46.8°F8.2°C 99% 2.0 mph WNW3.2 kmh WNW 4.0 mph6.4 kmh 29.96 in1014.6 mb 0.00 in0.0 mm 0.00 in0.0 mm 0.13 in3.3 mm
07:42 AM 47.3°F8.5°C 47.1°F8.4°C 99% Calm Calm 2.0 mph3.2 kmh 29.96 in1014.6 mb 0.00 in0.0 mm 0.00 in0.0 mm 0.13 in3.3 mm
08:03 AM 47.9°F8.8°C 47.7°F8.7°C 99% 1.0 mph WNW1.6 kmh WNW 4.0 mph6.4 kmh 29.96 in1014.6 mb 0.00 in0.0 mm 0.00 in0.0 mm 0.13 in3.3 mm
08:21 AM 48.1°F8.9°C 47.8°F8.8°C 99% 2.0 mph NW3.2 kmh NW 4.0 mph6.4 kmh 29.96 in1014.6 mb 0.00 in0.0 mm 0.00 in0.0 mm 0.13 in3.3 mm
08:42 AM 48.8°F9.3°C 48.5°F9.2°C 99% 1.0 mph 1.6 kmh 3.0 mph4.8 kmh 29.96 in1014.6 mb 0.00 in0.0 mm 0.00 in0.0 mm 0.13 in3.3 mm
09:03 AM 49.6°F9.8°C 49.4°F9.7°C 99% 1.0 mph 1.6 kmh 2.0 mph3.2 kmh 29.95 in1014.2 mb 0.00 in0.0 mm 0.00 in0.0 mm 0.13 in3.3 mm
09:42 AM 52.2°F11.2°C 51.7°F10.9°C 98% 1.0 mph 1.6 kmh 3.0 mph4.8 kmh 29.93 in1013.5 mb 0.00 in0.0 mm 0.00 in0.0 mm 0.13 in3.3 mm
10:03 AM 54.2°F12.3°C 50.5°F10.3°C 88% 3.0 mph 4.8 kmh 6.0 mph9.7 kmh 29.90 in1012.5 mb 0.00 in0.0 mm 0.00 in0.0 mm 0.13 in3.3 mm
10:21 AM 55.5°F13.1°C 48.3°F9.1°C 77% 3.0 mph 4.8 kmh 4.0 mph6.4 kmh 29.88 in1011.9 mb 0.00 in0.0 mm 0.00 in0.0 mm 0.13 in3.3 mm
10:42 AM 57.2°F14.0°C 47.1°F8.4°C 69% 1.0 mph NNW1.6 kmh NNW 5.0 mph8.0 kmh 29.86 in1011.2 mb 0.00 in0.0 mm 0.00 in0.0 mm 0.13 in3.3 mm
11:03 AM 58.6°F14.8°C 47.2°F8.4°C 66% 2.0 mph NW3.2 kmh NW 5.0 mph8.0 kmh 29.84 in1010.5 mb 0.00 in0.0 mm 0.00 in0.0 mm 0.13 in3.3 mm
11:21 AM 59.8°F15.4°C 47.0°F8.3°C 63% 3.0 mph NW4.8 kmh NW 5.0 mph8.0 kmh 29.83 in1010.2 mb 0.00 in0.0 mm 0.00 in0.0 mm 0.13 in3.3 mm
11:42 AM 60.4°F15.8°C 44.4°F6.9°C 55% 4.0 mph N6.4 kmh N 8.0 mph12.9 kmh 29.82 in1009.8 mb 0.00 in0.0 mm 0.00 in0.0 mm 0.13 in3.3 mm
12:03 PM 62.0°F16.7°C 43.8°F6.6°C 51% 3.0 mph 4.8 kmh 8.0 mph12.9 kmh 29.79 in1008.8 mb 0.00 in0.0 mm 0.00 in0.0 mm 0.13 in3.3 mm
12:21 PM 61.4°F16.3°C 42.1°F5.6°C 49% 3.0 mph 4.8 kmh 6.0 mph9.7 kmh 29.80 in1009.1 mb 0.00 in0.0 mm 0.00 in0.0 mm 0.13 in3.3 mm
12:42 PM 62.5°F16.9°C 39.7°F4.3°C 43% 4.0 mph 6.4 kmh 10.0 mph16.1 kmh 29.78 in1008.5 mb 0.00 in0.0 mm 0.00 in0.0 mm 0.13 in3.3 mm
01:03 PM 62.9°F17.2°C 39.0°F3.9°C 41% 5.0 mph 8.0 kmh 8.0 mph12.9 kmh 29.77 in1008.1 mb 0.00 in0.0 mm 0.00 in0.0 mm 0.13 in3.3 mm
01:21 PM 63.1°F17.3°C 33.4°F0.8°C 33% 7.0 mph NW11.3 kmh NW 14.0 mph22.5 kmh 29.77 in1008.1 mb 0.00 in0.0 mm 0.00 in0.0 mm 0.13 in3.3 mm
01:42 PM 63.6°F17.6°C 29.3°F-1.5°C 27% 7.0 mph NW11.3 kmh NW 15.0 mph24.1 kmh 29.77 in1008.1 mb 0.00 in0.0 mm 0.00 in0.0 mm 0.13 in3.3 mm
02:03 PM 64.4°F18.0°C 26.6°F-3.0°C 24% 5.0 mph NW8.0 kmh NW 15.0 mph24.1 kmh 29.76 in1007.8 mb 0.00 in0.0 mm 0.00 in0.0 mm 0.13 in3.3 mm
02:21 PM 65.7°F18.7°C 25.6°F-3.6°C 22% 6.0 mph NW9.7 kmh NW 13.0 mph20.9 kmh 29.75 in1007.5 mb 0.00 in0.0 mm 0.00 in0.0 mm 0.13 in3.3 mm
02:42 PM 67.9°F19.9°C 25.6°F-3.6°C 20% 4.0 mph NW6.4 kmh NW 9.0 mph14.5 kmh 29.73 in1006.8 mb 0.00 in0.0 mm 0.00 in0.0 mm 0.13 in3.3 mm
03:03 PM 68.1°F20.1°C 24.8°F-4.0°C 19% 3.0 mph NW4.8 kmh NW 6.0 mph9.7 kmh 29.73 in1006.8 mb 0.00 in0.0 mm 0.00 in0.0 mm 0.13 in3.3 mm
03:21 PM 68.4°F20.2°C 25.1°F-3.8°C 19% 4.0 mph NW6.4 kmh NW 8.0 mph12.9 kmh 29.73 in1006.8 mb 0.00 in0.0 mm 0.00 in0.0 mm 0.13 in3.3 mm
03:42 PM 67.7°F19.8°C 23.9°F-4.5°C 19% 3.0 mph NW4.8 kmh NW 6.0 mph9.7 kmh 29.75 in1007.5 mb 0.00 in0.0 mm 0.00 in0.0 mm 0.13 in3.3 mm
04:21 PM 68.8°F20.4°C 24.4°F-4.2°C 19% 3.0 mph NW4.8 kmh NW 6.0 mph9.7 kmh 29.74 in1007.1 mb 0.00 in0.0 mm 0.00 in0.0 mm 0.13 in3.3 mm
04:42 PM 69.4°F20.8°C 23.6°F-4.7°C 18% 2.0 mph NW3.2 kmh NW 4.0 mph6.4 kmh 29.73 in1006.8 mb 0.00 in0.0 mm 0.00 in0.0 mm 0.13 in3.3 mm
05:21 PM 58.0°F14.4°C 35.7°F2.1°C 43% 2.0 mph NW3.2 kmh NW 4.0 mph6.4 kmh 29.87 in1011.5 mb 0.00 in0.0 mm 0.00 in0.0 mm 0.13 in3.3 mm
05:42 PM 55.7°F13.2°C 38.3°F3.5°C 52% 1.0 mph NW1.6 kmh NW 2.0 mph3.2 kmh 29.89 in1012.2 mb 0.00 in0.0 mm 0.00 in0.0 mm 0.13 in3.3 mm
06:03 PM 53.7°F12.1°C 39.8°F4.3°C 59% 1.0 mph NW1.6 kmh NW 3.0 mph4.8 kmh 29.93 in1013.5 mb 0.00 in0.0 mm 0.00 in0.0 mm 0.13 in3.3 mm
06:21 PM 51.9°F11.1°C 39.7°F4.3°C 63% 1.0 mph NW1.6 kmh NW 4.0 mph6.4 kmh 29.94 in1013.9 mb 0.00 in0.0 mm 0.00 in0.0 mm 0.13 in3.3 mm
06:42 PM 50.8°F10.4°C 39.5°F4.2°C 65% 1.0 mph NW1.6 kmh NW 4.0 mph6.4 kmh 29.96 in1014.6 mb 0.00 in0.0 mm 0.00 in0.0 mm 0.13 in3.3 mm
07:03 PM 49.8°F9.9°C 39.5°F4.2°C 68% 2.0 mph NW3.2 kmh NW 5.0 mph8.0 kmh 29.98 in1015.2 mb 0.00 in0.0 mm 0.00 in0.0 mm 0.13 in3.3 mm
07:21 PM 49.4°F9.7°C 39.0°F3.9°C 68% 6.0 mph N9.7 kmh N 11.0 mph17.7 kmh 30.00 in1015.9 mb 0.00 in0.0 mm 0.00 in0.0 mm 0.13 in3.3 mm
07:42 PM 49.8°F9.9°C 38.3°F3.5°C 64% 3.0 mph 4.8 kmh 7.0 mph11.3 kmh 29.99 in1015.6 mb 0.00 in0.0 mm 0.00 in0.0 mm 0.13 in3.3 mm
08:03 PM 48.3°F9.1°C 38.4°F3.6°C 68% 3.0 mph 4.8 kmh 7.0 mph11.3 kmh 30.02 in1016.6 mb 0.00 in0.0 mm 0.00 in0.0 mm 0.13 in3.3 mm
08:21 PM 47.3°F8.5°C 38.3°F3.5°C 71% 2.0 mph 3.2 kmh 4.0 mph6.4 kmh 30.04 in1017.3 mb 0.00 in0.0 mm 0.00 in0.0 mm 0.13 in3.3 mm
08:42 PM 47.2°F8.4°C 38.1°F3.4°C 70% 5.0 mph 8.0 kmh 11.0 mph17.7 kmh 30.04 in1017.3 mb 0.00 in0.0 mm 0.00 in0.0 mm 0.13 in3.3 mm
09:03 PM 48.9°F9.4°C 37.3°F2.9°C 64% 4.0 mph 6.4 kmh 8.0 mph12.9 kmh 30.02 in1016.6 mb 0.00 in0.0 mm 0.00 in0.0 mm 0.13 in3.3 mm
09:21 PM 47.7°F8.7°C 37.2°F2.9°C 67% 3.0 mph 4.8 kmh 8.0 mph12.9 kmh 30.04 in1017.3 mb 0.00 in0.0 mm 0.00 in0.0 mm 0.13 in3.3 mm
09:42 PM 47.1°F8.4°C 37.0°F2.8°C 68% 4.0 mph 6.4 kmh 8.0 mph12.9 kmh 30.05 in1017.6 mb 0.00 in0.0 mm 0.00 in0.0 mm 0.13 in3.3 mm
10:03 PM 47.1°F8.4°C 36.7°F2.6°C 67% 4.0 mph 6.4 kmh 7.0 mph11.3 kmh 30.05 in1017.6 mb 0.00 in0.0 mm 0.00 in0.0 mm 0.13 in3.3 mm
10:21 PM 47.3°F8.5°C 36.7°F2.6°C 66% 4.0 mph 6.4 kmh 8.0 mph12.9 kmh 30.05 in1017.6 mb 0.00 in0.0 mm 0.00 in0.0 mm 0.13 in3.3 mm
10:42 PM 47.0°F8.3°C 36.4°F2.4°C 66% 2.0 mph 3.2 kmh 4.0 mph6.4 kmh 30.05 in1017.6 mb 0.00 in0.0 mm 0.00 in0.0 mm 0.13 in3.3 mm
11:13 PM 46.4°F8.0°C 36.0°F2.2°C 67% 1.0 mph 1.6 kmh 2.0 mph3.2 kmh 30.06 in1017.9 mb 0.00 in0.0 mm 0.00 in0.0 mm 0.12 in3.0 mm
11:34 PM 45.0°F7.2°C 36.1°F2.3°C 71% 2.0 mph 3.2 kmh 3.0 mph4.8 kmh 30.07 in1018.3 mb 0.00 in0.0 mm 0.00 in0.0 mm 0.12 in3.0 mm
11:55 PM 44.4°F6.9°C 37.0°F2.8°C 75% 3.0 mph 4.8 kmh 4.0 mph6.4 kmh 30.08 in1018.6 mb 0.00 in0.0 mm 0.00 in0.0 mm 0.12 in3.0 mm